Regional Weather Roundup
Issued by NWS

Home | Current Version | Previous Version | Graphics & Text | Print | Product List | Glossary On
Versions: 1 2 3 4 5 6 7 8 9 10 11 12 13 14 15 16 17 18 19 20 21 22 23 24 25 26 27 28 29 30 31 32 33 34 35 36 37 38 39 40 41 42 43 44 45 46 47 48 49 50
461
ASUS45 KSLC 221310
RWRUT

UTAH REGIONAL WEATHER ROUNDUP
NATIONAL WEATHER SERVICE SALT LAKE CITY UT
700 AM MDT TUE AUG 22 2017

UTZ001>011-023>025-221400-

NORTHERN UTAH

CITY           SKY/WX    TMP DP  RH WIND       PRES   REMARKS
BRIGHAM CITY   CLEAR     57  36  45 N3        30.19R
DUGWAY         MOCLDY    69  42  37 SE5       30.18R
HILL AFB       PTCLDY    63  40  41 E18       30.20R
LOGAN          CLEAR     50  42  74 CALM      30.23R
OGDEN          PTCLDY    64  41  42 S7        30.18R
SALT LAKE CITY MOCLDY    73  49  42 S5        30.17R
TOOELE VALLEY  PTCLDY    70  45  40 S15       30.18S
WENDOVER       CLOUDY    65  38  36 CALM      30.18R
HEBER CITY     PTCLDY    50  43  76 CALM      30.29R
WEST JORDAN    PTCLDY    68  54  61 SE6       30.21R

$$

UTZ011>015-024>027-221400-

CENTRAL/NORTHEAST UTAH

CITY           SKY/WX    TMP DP  RH WIND       PRES   REMARKS
PROVO AIRPORT  PTCLDY    63  48  59 VRB3      30.23
MOAB/CANYONLAN MOCLDY    68  41  37 CALM      30.19R
DELTA          CLOUDY    64  46  52 SE5       30.25R
PRICE          PTCLDY    61  40  45 NE6       30.29R
ROOSEVELT      CLEAR     55  45  67 W6        30.27R
VERNAL         CLOUDY    59  42  53 W6        30.26R

$$

UTZ013>016-019>022-027-221400-

SOUTHERN UTAH

CITY           SKY/WX    TMP DP  RH WIND       PRES   REMARKS
BRYCE CANYON   CLOUDY    52  49  89 W7        30.45R
CEDAR CITY     CLOUDY    56  54  93 CALM      30.30R
MILFORD        CLOUDY    63  50  62 SE7       30.27R
ST GEORGE      MOSUNNY   76  54  46 S5        30.14S
HANKSVILLE     MOCLDY    64  39  39 NE3       30.21R
BLANDING       MOCLDY    61  48  62 N7        30.38S

$$

REGIONAL REPORTS     COLORADO/ARIZONA

CITY           SKY/WX    TMP DP  RH WIND       PRES   REMARKS
CRAIG, CO      CLOUDY    42  34  73 CALM      30.36R
GRAND JUNCTION PTCLDY    65  42  43 E10       30.24R
RIFLE, CO      CLEAR     55  42  61 SE6       30.32R
MONTROSE, CO   CLOUDY    57  44  62 SE6       30.34R
CORTEZ, CO     PTCLDY    55  52  89 NE5       30.33R
COLORADO CITY    N/A     66  55  68 E13       30.26F
PAGE, AZ       LGT RAIN  74  52  46 N12       30.21R
GRAND CANYON   CLOUDY    58  52  80 NE13      30.38R
KINGMAN, AZ    CLEAR     59  53  80 N3        30.14R
FLAGSTAFF, AZ  PTCLDY    51  50  96 CALM      30.38R

$$

REGIONAL REPORTS    NEVADA/IDAHO/WYOMING

CITY           SKY/WX    TMP DP  RH WIND       PRES   REMARKS
LAS VEGAS, NV  PTCLDY    78  53  41 S3        30.06R
ELY, NY        CLOUDY    60  48  64 N5        30.32S
ELKO, NV       PTCLDY    56  34  43 CALM      30.22R
POCATELLO, ID  CLOUDY    48  35  60 SE5       30.23R
BURLEY, ID     CLEAR     48  43  82 N3        30.18R
FORT BRIDGER,    N/A     56  32  40 W7        30.40R
EVANSTON, WY   CLOUDY    52  36  54 E5        30.38R
ROCK SPRINGS,  CLOUDY    56  34  43 CALM      30.36R
KEMMERER, WY     N/A     45  30  57 N15       30.40S

$$




USA.gov is the U.S. government's official web portal to all federal, state and local government web resources and services.